Canberra, Australia

3:53 PM AEST on July 21, 2017 (GMT +1000)
Canberra

Weather History for YSCB - September, 2013

Change the Weather History Date:

Saturday, September 7, 2013

  Actual Average Record
Temperature  
Mean Temperature 60 °F -  
Max Temperature 75 °F 62 °F - ()
Min Temperature 44 °F 39 °F - ()
Degree Days  
Heating Degree Days 6    
Growing Degree Days 10 (Base 50)    
Moisture  
Dew Point 46 °F    
Average Humidity 64    
Maximum Humidity 93    
Minimum Humidity 30    
Precipitation  
Precipitation 0.00 in 0.08 in - ()
Sea Level Pressure  
Sea Level Pressure 30.20 in    
Wind  
Wind Speed 7 mph ()    
Max Wind Speed 20 mph    
Max Gust Speed 30 mph    
Visibility 6.2 miles    
Events      
T = Trace of Precipitation, MM = Missing Value Source: Averaged Metar Reports

Daily Weather History Graph

Daily Weather History Graph

Search for Another Location

Airport or City:

Trip Planner

Search our weather history database for the weather conditions in past years. The results will help you decide how hot, cold, wet, or windy it might be!

Date:

Astronomy

Sep. 07, 2013 Rise Set
Actual Time 6:14 AM AEST 5:48 PM AEST
Civil Twilight 5:49 AM AEST 6:13 PM AEST
Nautical Twilight 5:20 AM AEST 6:43 PM AEST
Astronomical Twilight 4:50 AM AEST 7:12 PM AEST
Moon 6:48 AM AEST (9/7) 7:36 PM AEST (9/7)
Length of Visible Light 12h 24m
Length of Day
11h 33m
Waxing Crescent, 3% of the Moon is Illuminated
Sep 7
Waxing Crescent
Sep 13
First Quarter
Sep 19
Full
Sep 27
Last Quarter
Oct 5
New

Hourly Weather History & Observations

Time (AEST) Temp. Windchill Dew Point Humidity Pressure Visibility Wind Dir Wind Speed Gust Speed Precip Events Conditions
12:00 AM 53 °F - 47 °F 75% 30.23 in - SSW 3.5 mph - -  
12:00 AM 53.6 °F - 48.2 °F 82% 30.21 in 6.2 mi SSW 3.5 mph - N/A   Unknown
12:30 AM 51.8 °F - 46.4 °F 82% 30.21 in 6.2 mi SSE 4.6 mph - N/A   Unknown
1:00 AM 51 °F - 47 °F 81% 30.22 in - South 4.6 mph - -  
1:00 AM 51.8 °F - 46.4 °F 82% 30.21 in 6.2 mi South 4.6 mph - N/A   Unknown
1:30 AM 48.2 °F - 44.6 °F 87% 30.18 in 6.2 mi ESE 3.5 mph - N/A   Unknown
2:00 AM 50.0 °F - 46.4 °F 87% 30.18 in 6.2 mi Calm Calm - N/A   Unknown
2:30 AM 46.4 °F 44.3 °F 42.8 °F 87% 30.18 in 6.2 mi South 4.6 mph - N/A   Unknown
3:00 AM 47 °F - 44 °F 87% 30.19 in - East 4.6 mph - -  
3:00 AM 46.4 °F 44.3 °F 44.6 °F 93% 30.18 in 6.2 mi East 4.6 mph - N/A   Unknown
3:30 AM 44.6 °F 42.2 °F 42.8 °F 93% 30.18 in 6.2 mi SSE 4.6 mph - N/A   Unknown
4:00 AM 46 °F - 44 °F 90% 30.19 in - SSE 4.6 mph - -  
4:00 AM 46.4 °F 44.3 °F 44.6 °F 93% 30.18 in 6.2 mi SSE 4.6 mph - N/A   Unknown
4:30 AM 46.4 °F 43.5 °F 44.6 °F 93% 30.18 in 6.2 mi South 5.8 mph - N/A   Unknown
5:00 AM 48.2 °F - 44.6 °F 87% 30.18 in 6.2 mi East 5.8 mph - N/A   Unknown
5:30 AM 44.6 °F 41.4 °F 41.0 °F 87% 30.21 in 6.2 mi South 5.8 mph - N/A   Unknown
6:00 AM 45 °F - 43 °F 91% 30.22 in - ESE 6.9 mph - -  
6:00 AM 44.6 °F 40.7 °F 42.8 °F 93% 30.21 in 6.2 mi ESE 6.9 mph - N/A   Partly Cloudy
6:30 AM 44.6 °F 42.2 °F 42.8 °F 93% 30.21 in 6.2 mi South 4.6 mph - N/A   Partly Cloudy
7:00 AM 48 °F - 45 °F 87% 30.22 in - ENE 3.5 mph - -  
7:00 AM 48.2 °F - 44.6 °F 87% 30.21 in 6.2 mi ENE 3.5 mph - N/A   Partly Cloudy
7:30 AM 50.0 °F - 46.4 °F 87% 30.21 in 6.2 mi South 5.8 mph - N/A   Partly Cloudy
8:00 AM 55.4 °F - 50.0 °F 82% 30.21 in 6.2 mi Calm Calm - N/A   Partly Cloudy
8:30 AM 60.8 °F - 46.4 °F 59% 30.21 in 6.2 mi SW 4.6 mph - N/A   Partly Cloudy
9:00 AM 65 °F - 48 °F 43% 30.23 in - NNW 13.8 mph - -  
9:00 AM 64.4 °F - 48.2 °F 56% 30.21 in 6.2 mi NNW 13.8 mph - N/A   Partly Cloudy
9:30 AM 66.2 °F - 48.2 °F 52% 30.21 in 6.2 mi NW 13.8 mph - N/A   Partly Cloudy
10:00 AM 67 °F - 48 °F 39% 30.23 in - NNW 10.4 mph - -  
10:00 AM 66.2 °F - 48.2 °F 52% 30.21 in 6.2 mi NNW 10.4 mph - N/A   Partly Cloudy
10:30 AM 69.8 °F - 51.8 °F 53% 30.18 in 6.2 mi NW 9.2 mph - N/A   Partly Cloudy
11:00 AM 71.6 °F - 51.8 °F 50% 30.18 in 6.2 mi NNW 12.7 mph - N/A   Partly Cloudy
11:30 AM 71.6 °F - 51.8 °F 50% 30.18 in 6.2 mi NNW 12.7 mph - N/A   Partly Cloudy
12:00 PM 71.6 °F - 46.4 °F 41% 30.18 in 6.2 mi WNW 15.0 mph - N/A   Partly Cloudy
12:30 PM 73.4 °F - 46.4 °F 38% 30.15 in 6.2 mi WNW 19.6 mph - N/A   Partly Cloudy
1:00 PM 75.2 °F - 46.4 °F 36% 30.15 in 6.2 mi West 19.6 mph - N/A   Scattered Clouds
1:18 PM 73.4 °F - 46.4 °F 38% 30.15 in 6.2 mi WNW 18.4 mph 29.9 mph N/A   Scattered Clouds
1:30 PM 73.4 °F - 46.4 °F 38% 30.15 in - West 17.3 mph - N/A   Clear
2:00 PM 73.4 °F - 46.4 °F 38% 30.15 in - WNW 17.3 mph - N/A   Clear
2:30 PM 73.4 °F - 48.2 °F 41% 30.15 in 6.2 mi WNW 18.4 mph - N/A   Scattered Clouds
3:00 PM 73 °F - 48 °F 30% 30.17 in - West 15.0 mph - -   Overcast
3:00 PM 73.4 °F - 48.2 °F 41% 30.15 in 6.2 mi West 15.0 mph - N/A   Scattered Clouds
3:30 PM 71.6 °F - 46.4 °F 41% 30.15 in 6.2 mi WNW 13.8 mph - N/A   Partly Cloudy
4:00 PM 71 °F - 47 °F 30% 30.17 in - WNW 12.7 mph - -  
4:00 PM 71.6 °F - 46.4 °F 41% 30.15 in 6.2 mi WNW 12.7 mph - N/A   Scattered Clouds
4:30 PM 69.8 °F - 46.4 °F 43% 30.15 in 6.2 mi WNW 15.0 mph - N/A   Scattered Clouds
5:00 PM 68.0 °F - 44.6 °F 43% 30.15 in 6.2 mi WNW 13.8 mph - N/A   Mostly Cloudy
5:30 PM 66.2 °F - 44.6 °F 46% 30.18 in 6.2 mi WNW 9.2 mph - N/A   Mostly Cloudy
6:00 PM 64 °F - 46 °F 40% 30.21 in - NNW 11.5 mph - -   Overcast
6:00 PM 64.4 °F - 46.4 °F 52% 30.18 in 6.2 mi NNW 11.5 mph - N/A   Scattered Clouds
6:30 PM 62.6 °F - 46.4 °F 55% 30.18 in 6.2 mi North 12.7 mph - N/A   Mostly Cloudy
7:00 PM 61 °F - 46 °F 46% 30.23 in - NNW 15.0 mph - -  
7:00 PM 60.8 °F - 46.4 °F 59% 30.21 in 6.2 mi NNW 15.0 mph - N/A   Mostly Cloudy
7:30 PM 60.8 °F - 44.6 °F 55% 30.21 in 6.2 mi NNW 12.7 mph - N/A   Overcast
8:00 PM 59.0 °F - 46.4 °F 63% 30.21 in 6.2 mi NW 12.7 mph - N/A   Scattered Clouds
8:30 PM 59.0 °F - 46.4 °F 63% 30.24 in 6.2 mi WNW 5.8 mph - N/A   Scattered Clouds
9:00 PM 60 °F - 47 °F 51% 30.27 in - NNE 5.8 mph - -  
9:00 PM 59.0 °F - 46.4 °F 63% 30.24 in 6.2 mi NNE 5.8 mph - N/A   Scattered Clouds
9:30 PM 57.2 °F - 46.4 °F 67% 30.24 in 6.2 mi NW 4.6 mph - N/A   Mostly Cloudy
10:00 PM 55 °F - 46 °F 62% 30.27 in - NNW 8.1 mph - -  
10:00 PM 55.4 °F - 46.4 °F 72% 30.24 in 6.2 mi NNW 8.1 mph - N/A   Overcast
10:30 PM 55.4 °F - 46.4 °F 72% 30.24 in 6.2 mi North 6.9 mph - N/A   Mostly Cloudy
11:00 PM 51.8 °F - 44.6 °F 76% 30.24 in 6.2 mi NE 5.8 mph - N/A   Unknown
11:30 PM 53.6 °F - 46.4 °F 77% 30.24 in 6.2 mi NE 8.1 mph - N/A   Unknown